Last 24 Hours

Red Mountain

10 Minute Data | America/Los_Angeles
as of 9/2/26 2:46 PM PDT
Date & Time Temp (°F) Dew Pt (°F) RH (%) Wind Spd (mph) Wind Dir (°) Wind Gust (mph) Wind Gst Dir (°) Daily Max Temp (°F) Daily Min Temp (°F)
9/2/26 - 1440 70.3 35.0 27 10.9 SW | 233 20.3 WSW | 240 73.4 59.3
9/2/26 - 1430 70.3 35.5 28 10.4 SW | 234 17.1 WSW | 251 73.4 59.3
9/2/26 - 1420 71.6 34.5 26 10.8 SW | 222 18.3 WSW | 246 73.4 59.3
9/2/26 - 1410 71.8 35.2 26 10.7 SW | 231 22.9 WSW | 244 73.4 59.3
9/2/26 - 1400 71.7 33.8 25 10.1 SW | 227 21.5 WSW | 237 73.4 59.3
9/2/26 - 1350 70.6 32.5 24 13.4 WSW | 246 20.8 W | 267 73.1 59.3
9/2/26 - 1340 70.5 30.2 22 10.3 SW | 235 21.8 WSW | 238 73.1 59.3
9/2/26 - 1330 71.2 29.7 21 12.8 WSW | 244 18.8 SSW | 213 72.8 59.3
9/2/26 - 1320 71.5 26.9 19 10.5 SW | 228 18.3 SW | 232 72.8 59.3
9/2/26 - 1310 70.5 25.3 18 10.6 WSW | 239 19.1 WSW | 255 72.8 59.3
9/2/26 - 1300 70.8 24.8 18 9.0 SW | 226 17.5 WSW | 247 72.8 59.3
9/2/26 - 1250 70.5 25.1 18 12.5 SW | 233 19.2 WSW | 250 72.8 59.3
9/2/26 - 1240 70.8 28.2 20 9.7 SW | 226 18.2 SW | 232 72.5 59.3
9/2/26 - 1230 70.8 26.3 19 9.5 SW | 231 19.8 WSW | 240 72.4 59.3
9/2/26 - 1220 69.9 25.6 19 7.5 SW | 224 14.6 SW | 230 72.4 59.3
9/2/26 - 1210 70.4 25.1 18 10.4 SW | 232 17.5 WSW | 256 72.4 59.3
9/2/26 - 1200 71.2 24.5 17 8.8 SW | 233 15.0 SW | 233 72.4 59.3
9/2/26 - 1150 70.3 24.4 18 7.0 SSW | 211 14.0 SW | 214 72.3 59.3
9/2/26 - 1140 69.6 23.9 18 8.7 SW | 227 14.8 SW | 223 71.1 59.3
9/2/26 - 1130 69.9 25.1 18 7.9 WSW | 237 16.7 W | 272 71.1 59.3
9/2/26 - 1120 69.2 25.9 20 8.5 WSW | 252 15.5 W | 271 70.3 59.3
9/2/26 - 1110 68.3 26.9 21 8.7 SW | 234 14.8 WSW | 250 69.4 59.3
9/2/26 - 1100 68.3 28.4 22 7.4 W | 262 15.1 WSW | 256 69.4 59.3
9/2/26 - 1050 67.4 26.1 21 8.6 SW | 233 18.3 SW | 236 69.4 59.3
9/2/26 - 1040 67.5 27.0 22 7.8 WSW | 253 14.0 WSW | 255 69.4 59.3
9/2/26 - 1030 67.5 25.2 20 8.3 W | 264 14.0 WSW | 254 69.4 59.3
9/2/26 - 1020 68.7 23.9 18 6.0 SW | 227 11.5 SW | 220 69.4 59.3
9/2/26 - 1010 67.7 23.4 19 5.8 SW | 224 13.1 WSW | 252 68.6 59.3
9/2/26 - 1000 67.8 22.3 18 4.9 SW | 226 9.0 SW | 224 68.6 59.3
9/2/26 - 0950 66.6 21.4 18 5.0 SW | 225 9.2 SW | 227 67.0 59.3
9/2/26 - 0940 66.2 21.5 18 4.6 SW | 221 8.3 SW | 234 66.7 59.3
9/2/26 - 0930 65.7 21.3 18 4.6 WSW | 237 7.7 WSW | 246 66.1 59.3
9/2/26 - 0920 65.4 20.7 18 3.7 WSW | 249 8.3 WSW | 250 65.5 59.3
9/2/26 - 0910 64.6 21.2 19 2.7 WSW | 257 4.2 WSW | 238 65.2 59.3
9/2/26 - 0900 64.3 21.6 19 2.7 SW | 226 3.9 SW | 224 65.2 59.3
9/2/26 - 0850 64.0 21.0 19 2.3 SW | 214 3.3 SW | 215 65.2 59.3
9/2/26 - 0840 63.6 20.7 19 2.5 SW | 218 3.6 SW | 230 65.2 59.3
9/2/26 - 0830 63.4 20.4 19 3.2 SW | 232 4.2 WSW | 252 65.2 59.3
9/2/26 - 0820 63.5 20.1 19 2.7 WSW | 237 3.4 WSW | 238 65.2 59.3
9/2/26 - 0810 63.5 20.0 19 3.6 SW | 227 4.3 SW | 228 65.2 59.3
9/2/26 - 0800 63.6 20.2 19 4.6 SW | 218 5.6 SW | 226 65.2 59.3
9/2/26 - 0750 63.8 20.1 18 3.4 SW | 216 4.5 SW | 214 65.2 59.3
9/2/26 - 0740 64.6 19.7 18 2.2 WSW | 246 3.9 W | 270 65.2 59.3
9/2/26 - 0730 65.0 20.0 18 2.3 NW | 305 4.2 WNW | 299 65.2 59.3
9/2/26 - 0720 64.9 19.6 17 2.5 NNW | 332 3.8 WNW | 302 64.9 59.3
9/2/26 - 0710 64.7 19.3 17 2.1 NNW | 347 5.2 NW | 325 64.9 59.3
9/2/26 - 0700 64.4 18.9 17 3.0 NNW | 334 4.5 NNW | 345 64.9 59.3
9/2/26 - 0650 64.4 18.9 17 3.7 WNW | 284 5.4 W | 267 64.9 59.3
9/2/26 - 0640 64.6 18.4 17 5.5 W | 271 7.4 WNW | 286 64.9 59.3
9/2/26 - 0630 64.7 17.7 16 5.0 W | 280 7.3 W | 281 64.9 59.3
9/2/26 - 0620 64.5 18.3 17 4.5 W | 268 7.0 W | 268 64.9 59.3
9/2/26 - 0610 64.4 18.4 17 4.9 NW | 304 8.2 WNW | 293 64.9 59.3
9/2/26 - 0600 64.3 19.6 18 6.8 WNW | 284 10.7 W | 268 64.6 59.3
9/2/26 - 0550 64.2 19.4 18 9.1 W | 269 11.4 W | 275 64.6 59.3
9/2/26 - 0540 64.1 18.5 17 8.6 W | 269 11.2 W | 275 64.3 59.3
9/2/26 - 0530 64.2 18.6 17 7.4 W | 260 10.3 W | 262 64.3 59.3
9/2/26 - 0520 64.0 18.4 17 5.3 WSW | 257 9.8 W | 273 64.3 59.3
9/2/26 - 0510 63.2 19.8 19 3.6 W | 274 5.4 WNW | 288 63.6 59.3
9/2/26 - 0500 62.9 22.9 21 1.9 W | 271 4.7 W | 260 63.4 59.3
9/2/26 - 0450 63.4 23.1 21 4.9 WSW | 243 5.6 SW | 235 63.4 59.3
9/2/26 - 0440 63.1 23.6 22 4.8 SW | 232 5.6 SW | 234 63.3 59.3
9/2/26 - 0430 62.7 23.4 22 3.2 SW | 215 5.0 SW | 219 63.0 59.3
9/2/26 - 0420 62.2 22.0 21 2.8 SSW | 200 3.4 SSW | 213 62.5 59.3
9/2/26 - 0410 62.0 21.7 21 3.0 SSW | 197 3.8 SSW | 209 62.1 59.3
9/2/26 - 0400 61.9 21.9 21 3.9 SSW | 206 4.5 SSW | 205 62.0 59.3
9/2/26 - 0350 61.8 22.9 22 4.5 SSW | 207 5.0 SSW | 203 61.9 59.3
9/2/26 - 0340 61.7 23.8 23 3.5 SSW | 193 5.0 SSW | 200 61.9 59.3
9/2/26 - 0330 61.6 24.7 24 3.9 SSW | 202 4.5 SSW | 208 61.8 59.3
9/2/26 - 0320 60.9 26.6 27 3.6 SW | 235 4.3 SW | 214 61.0 59.3
9/2/26 - 0310 60.6 26.3 27 3.8 WSW | 248 4.4 WSW | 237 60.7 59.3
9/2/26 - 0300 60.5 30.5 32 4.6 SW | 234 5.1 SW | 229 60.5 59.3
9/2/26 - 0250 60.4 27.5 29 5.0 WSW | 238 5.7 WSW | 241 60.5 59.3
9/2/26 - 0240 60.0 23.7 25 5.2 WSW | 242 5.7 SW | 236 60.2 59.3
9/2/26 - 0230 59.6 26.7 28 4.6 W | 259 5.2 WSW | 247 60.2 59.3
9/2/26 - 0220 59.5 25.5 27 4.0 WSW | 256 5.0 WSW | 258 60.2 59.3
9/2/26 - 0210 59.5 27.5 29 3.0 WSW | 255 3.8 WSW | 256 60.2 59.3
9/2/26 - 0200 59.4 23.1 25 4.1 WSW | 249 5.3 WSW | 241 60.2 59.3
9/2/26 - 0150 59.5 22.3 24 5.4 WSW | 247 6.9 WSW | 248 60.2 59.4
9/2/26 - 0140 59.7 22.6 24 6.3 WSW | 245 7.9 WSW | 243 60.2 59.5
9/2/26 - 0130 59.9 22.6 24 6.6 WSW | 244 7.7 WSW | 242 60.2 59.6
9/2/26 - 0120 60.2 22.1 23 6.6 WSW | 242 7.6 WSW | 244 60.2 59.6
9/2/26 - 0110 59.8 21.9 23 6.1 SW | 231 6.7 SW | 234 60.0 59.6
9/2/26 - 0100 59.5 22.1 23 6.5 SW | 232 7.4 SW | 231 76.0 59.3
9/2/26 - 0050 59.4 22.3 24 7.3 SW | 222 9.7 SW | 215 76.0 59.3
9/2/26 - 0040 59.4 22.2 24 8.6 SW | 219 10.2 SW | 220 76.0 59.3
9/2/26 - 0030 59.3 22.2 24 8.9 SW | 225 11.2 SW | 222 76.0 59.3
9/2/26 - 0020 59.3 21.9 23 8.9 SW | 221 11.0 SW | 227 76.0 59.3
9/2/26 - 0010 59.5 21.7 23 9.5 SW | 214 11.3 SW | 220 76.0 59.4
9/2/26 - 0000 59.9 21.3 22 8.8 SW | 224 11.2 SW | 229 76.0 59.6
9/1/26 - 2350 60.4 21.4 22 9.2 WSW | 238 12.6 WSW | 241 76.0 60.1
9/1/26 - 2340 60.9 21.5 22 10.3 WSW | 241 13.9 WSW | 249 76.0 60.6
9/1/26 - 2330 61.1 21.5 22 10.4 WSW | 237 13.4 SW | 234 76.0 60.9
9/1/26 - 2320 61.5 21.4 21 10.0 SW | 234 13.6 SW | 229 76.0 61.2
9/1/26 - 2310 61.5 21.6 21 11.2 SW | 236 13.9 WSW | 237 76.0 61.4
9/1/26 - 2300 61.7 21.0 21 10.1 WSW | 240 13.7 WSW | 237 76.0 61.5
9/1/26 - 2250 61.8 20.4 20 9.3 WSW | 237 13.1 SW | 226 76.0 61.6
9/1/26 - 2240 62.0 21.2 21 6.8 WSW | 239 10.3 WSW | 237 76.0 61.8
9/1/26 - 2230 62.4 21.8 21 5.8 WSW | 243 8.6 WSW | 240 76.0 62.1
9/1/26 - 2220 62.6 22.4 21 7.5 WSW | 244 9.9 WSW | 244 76.0 62.3
9/1/26 - 2210 62.7 22.3 21 6.4 WSW | 249 8.6 W | 262 76.0 62.3
9/1/26 - 2200 62.7 21.8 21 6.5 SW | 234 8.3 SW | 230 76.0 62.3
9/1/26 - 2150 62.6 23.0 22 5.3 SW | 236 7.7 WSW | 240 76.0 62.3
9/1/26 - 2140 63.0 26.8 25 4.5 WSW | 252 6.1 WSW | 253 76.0 62.3
9/1/26 - 2130 63.2 28.2 26 4.5 WSW | 257 6.6 W | 260 76.0 62.3
9/1/26 - 2120 63.3 28.8 27 5.5 W | 260 7.3 W | 271 76.0 62.3
9/1/26 - 2110 63.4 28.2 26 4.8 WSW | 256 7.1 W | 260 76.0 62.3
9/1/26 - 2100 63.1 25.9 24 5.2 WSW | 247 7.2 WSW | 250 76.0 62.3
9/1/26 - 2050 62.7 22.2 21 5.3 WSW | 243 7.2 SW | 227 76.0 62.3
9/1/26 - 2040 62.6 22.9 22 6.2 WSW | 249 8.5 W | 263 76.0 62.3
9/1/26 - 2030 62.5 24.0 23 6.8 WSW | 242 9.5 WSW | 244 76.0 62.3
9/1/26 - 2020 62.9 27.9 26 6.4 SW | 233 9.8 SW | 225 76.0 62.5
9/1/26 - 2010 63.6 29.7 28 8.6 WSW | 245 13.2 WSW | 249 76.0 62.7
9/1/26 - 2000 62.9 27.6 26 7.2 WSW | 245 9.6 WSW | 249 76.0 62.7
9/1/26 - 1950 63.0 26.7 25 6.6 WSW | 246 10.6 WSW | 251 76.0 62.8
9/1/26 - 1940 63.4 26.6 25 8.2 WSW | 239 12.3 WSW | 238 76.0 63.0
9/1/26 - 1930 63.6 26.8 25 8.5 WSW | 253 10.8 WSW | 244 76.0 63.5
9/1/26 - 1920 64.0 29.3 27 9.3 WSW | 237 11.5 WSW | 247 76.0 63.6
9/1/26 - 1910 64.7 32.3 30 9.3 SW | 224 12.1 SW | 232 76.0 64.2
9/1/26 - 1900 66.1 36.8 34 8.3 SW | 225 11.6 SW | 226 76.0 64.2
9/1/26 - 1850 67.3 35.6 31 6.4 SW | 226 10.4 SW | 219 76.0 64.2
9/1/26 - 1840 67.4 35.3 30 6.0 SW | 219 9.7 SSW | 208 76.0 64.2
9/1/26 - 1830 67.2 35.6 31 8.4 SW | 231 13.8 SW | 216 76.0 64.2
9/1/26 - 1820 67.9 36.7 32 9.4 SW | 232 14.5 SW | 230 76.0 64.2
9/1/26 - 1810 68.4 36.4 31 11.1 WSW | 237 16.4 SW | 224 76.0 64.2
9/1/26 - 1800 69.0 36.8 31 11.3 SW | 230 16.4 SW | 228 76.0 64.2
9/1/26 - 1750 69.6 36.7 30 11.7 SW | 235 17.2 SW | 235 76.0 64.2
9/1/26 - 1740 69.9 36.6 30 12.2 SW | 230 17.3 SW | 234 76.0 64.2
9/1/26 - 1730 71.0 35.8 27 11.8 SW | 230 18.6 SW | 223 76.0 64.2
9/1/26 - 1720 70.8 36.6 29 13.6 SW | 231 19.1 SW | 233 76.0 64.2
9/1/26 - 1710 71.9 37.6 29 12.9 SW | 233 21.3 WSW | 251 76.0 64.2
9/1/26 - 1700 71.9 37.5 28 12.7 SW | 230 20.5 WSW | 239 76.0 64.2
9/1/26 - 1650 71.6 37.8 29 14.2 SW | 230 21.3 SW | 228 76.0 64.2
9/1/26 - 1640 72.4 38.5 29 13.0 SW | 230 20.4 SW | 234 76.0 64.2
9/1/26 - 1630 73.3 39.1 29 13.7 SW | 229 22.6 WSW | 251 76.0 64.2
9/1/26 - 1620 72.6 39.5 30 16.5 SW | 236 24.1 WSW | 255 76.0 64.2
9/1/26 - 1610 73.8 39.8 29 11.1 SW | 228 21.4 SW | 233 76.0 64.2
9/1/26 - 1600 72.8 40.1 31 14.3 SW | 232 23.4 SW | 228 76.0 64.2
9/1/26 - 1550 72.8 40.1 31 13.4 SW | 228 20.4 WSW | 252 76.0 64.2
9/1/26 - 1540 73.7 39.5 29 15.2 SW | 234 24.5 SW | 236 76.0 64.2
9/1/26 - 1530 74.7 39.4 28 10.7 SW | 229 21.6 WSW | 246 76.0 64.2
9/1/26 - 1520 73.6 38.7 28 13.6 SW | 229 21.4 SW | 230 75.7 64.2
9/1/26 - 1510 73.8 37.6 27 14.5 SW | 234 24.1 SW | 232 75.7 64.2
9/1/26 - 1500 73.5 36.4 26 12.6 WSW | 240 21.0 WSW | 253 75.7 64.2
9/1/26 - 1450 72.6 35.5 26 13.6 SW | 228 23.2 WSW | 244 75.7 64.2
9/1/26 - 1440 73.4 34.4 24 13.4 SW | 231 20.2 SW | 220 75.7 64.2
Max 74.7 40.1 34 16.5 - 24.5 - 76.0 64.2
Avg 65.6 26.4 23 7.5 - 11.7 - - -
Min 59.3 17.7 16 1.9 - 3.3 - 60.0 59.3